Elkins, WV

7:01 AM EDT on April 24, 2018 (GMT -0400)
Elkins-Randolph County

Weather History for KEKN - January, 2012

Change the Weather History Date:

Tuesday, January 17, 2012

  Actual Average Record
Temperature  
Mean Temperature 48 °F 29 °F  
Max Temperature 58 °F 39 °F 67 °F (1932)
Min Temperature 38 °F 19 °F -18 °F (1957)
Degree Days  
Heating Degree Days 17 36  
Month to date heating degree days 583 612  
Since 1 July heating degree days 2534 2903  
Cooling Degree Days 0 0  
Month to date cooling degree days 0 0  
Year to date cooling degree days 0 0  
Moisture  
Dew Point 42 °F    
Average Humidity 77    
Maximum Humidity 92    
Minimum Humidity 62    
Precipitation  
Precipitation 0.62 in 0.11 in 0.88 in (1907)
Month to date precipitation 1.16 1.77  
Year to date precipitation 1.16 1.77  
Snow  
Snow 0.00 in 0.90 in 9.00 in (1940)
Month to date snowfall 11.6 13.0  
Since 1 September snowfall 18.4 35.4  
Snow Depth 0.00 in    
Sea Level Pressure  
Sea Level Pressure 29.87 in    
Wind  
Wind Speed 10 mph (SW)    
Max Wind Speed 33 mph    
Max Gust Speed 48 mph    
Visibility 8 miles    
Events Rain    
T = Trace of Precipitation, MM = Missing Value Source: NWS Daily Summary

Daily Weather History Graph

Daily Weather History Graph

Search for Another Location

Airport or City:

Astronomy

Jan. 17, 2012 Rise Set
Actual Time 7:35 AM EST 5:23 PM EST
Civil Twilight 7:06 AM EST 5:52 PM EST
Nautical Twilight 6:34 AM EST 6:25 PM EST
Astronomical Twilight 6:02 AM EST 6:56 PM EST
Moon 1:54 AM EST (1/17) 12:15 PM EST (1/17)
Length of Visible Light 10h 45m
Length of Day
9h 47m
Waning Crescent, 35% of the Moon is Illuminated
Jan 17
Waning Crescent
Jan 23
New
Jan 30
First Quarter
Feb 7
Full
Feb 14
Last Quarter

Hourly Weather History & Observations

Time (EST) Temp. Windchill Dew Point Humidity Pressure Visibility Wind Dir Wind Speed Gust Speed Precip Events Conditions
12:51 AM 44.1 °F 40.8 °F 37.0 °F 76% 30.06 in 10.0 mi South 5.8 mph - 0.00 in   Overcast
1:51 AM 45.0 °F 40.1 °F 37.0 °F 74% 30.04 in 10.0 mi South 9.2 mph - 0.01 in Rain Light Rain
2:51 AM 44.1 °F 42.5 °F 39.9 °F 85% 30.04 in 8.0 mi Variable 3.5 mph - 0.05 in Rain Light Rain
3:51 AM 43.0 °F 41.3 °F 39.9 °F 89% 30.01 in 8.0 mi ESE 3.5 mph - 0.08 in Rain Light Rain
4:51 AM 45.0 °F - 41.0 °F 86% 29.99 in 10.0 mi Calm Calm - 0.01 in Rain Light Rain
5:51 AM 45.0 °F 42.6 °F 42.1 °F 90% 29.99 in 10.0 mi SE 4.6 mph - 0.00 in Rain Light Rain
6:51 AM 46.9 °F - 43.0 °F 86% 29.97 in 7.0 mi South 6.9 mph - 0.05 in Rain Light Rain
7:51 AM 46.4 °F 45.2 °F 42.8 °F 87% 29.92 in 4.0 mi NNW 3.5 mph - N/A Rain Light Rain
8:51 AM 45.0 °F 42.6 °F 43.0 °F 93% 29.94 in 2.0 mi SW 4.6 mph - 0.17 in Rain Rain
9:05 AM 44.6 °F - 44.6 °F 100% 29.89 in 4.0 mi Calm Calm - 0.03 in Rain Light Rain
9:51 AM 46.9 °F - 45.0 °F 93% 29.90 in 9.0 mi South 6.9 mph - 0.04 in Rain Light Rain
10:51 AM 51.8 °F - 44.6 °F 76% 29.85 in 10.0 mi South 9.2 mph - N/A Rain Light Rain
11:51 AM 54.0 °F - 43.0 °F 66% 29.83 in 10.0 mi South 9.2 mph 18.4 mph 0.00 in   Overcast
12:51 PM 55.0 °F - 45.0 °F 69% 29.79 in 10.0 mi South 12.7 mph 18.4 mph N/A   Overcast
1:51 PM 57.0 °F - 45.0 °F 64% 29.75 in 10.0 mi SSW 12.7 mph 29.9 mph N/A   Overcast
2:51 PM 57.9 °F - 45.0 °F 62% 29.72 in 10.0 mi SSW 11.5 mph 25.3 mph N/A   Overcast
3:41 PM 51.8 °F - 46.4 °F 82% 29.78 in 7.0 mi West 15.0 mph 34.5 mph 0.04 in Rain Rain
3:51 PM 51.1 °F - 46.0 °F 83% 29.81 in 6.0 mi WNW 15.0 mph 20.7 mph 0.06 in Rain Rain
4:51 PM 51.1 °F - 45.0 °F 80% 29.78 in 10.0 mi South 10.4 mph - 0.08 in   Scattered Clouds
5:51 PM 53.1 °F - 45.0 °F 74% 29.76 in 10.0 mi Variable 5.8 mph - N/A   Overcast
6:51 PM 54.0 °F - 44.1 °F 69% 29.77 in 10.0 mi WSW 20.7 mph 31.1 mph N/A   Scattered Clouds
7:51 PM 52.0 °F - 41.0 °F 66% 29.78 in 10.0 mi WSW 9.2 mph 17.3 mph N/A   Partly Cloudy
8:51 PM 51.8 °F - 39.2 °F 62% 29.76 in 10.0 mi WSW 24.2 mph 42.6 mph N/A   Partly Cloudy
9:23 PM 46.4 °F 40.4 °F 42.8 °F 87% 29.80 in 6.0 mi WNW 13.8 mph 29.9 mph 0.01 in Rain Rain
9:30 PM 46.4 °F 38.5 °F 41.0 °F 81% 29.81 in 6.0 mi West 21.9 mph 29.9 mph 0.01 in Rain Light Rain
9:51 PM 43.0 °F 34.8 °F 39.0 °F 86% 29.87 in 10.0 mi WNW 18.4 mph 33.4 mph 0.01 in   Overcast
10:33 PM 42.8 °F 35.8 °F 35.6 °F 76% 29.87 in 10.0 mi West 13.8 mph 25.3 mph N/A   Overcast
10:51 PM 41.0 °F 33.5 °F 33.1 °F 73% 29.91 in 10.0 mi WNW 13.8 mph 23.0 mph N/A   Overcast
11:51 PM 37.9 °F 29.6 °F 30.9 °F 76% 29.94 in 10.0 mi WNW 13.8 mph 20.7 mph N/A   Overcast